Hourly Data Report for September 07, 2015

All times are specified in Local Standard Time (LST). Add 1 hour to adjust for Daylight Saving Time where and when it is observed.

TORONTO INTL A
ONTARIO

43°40'36.000" N
79°37'50.000" W
173.40 m
6158731
71624
YYZ

Download Data

Hourly Data (September 2015)
Hourly Data Report for September 7, 2015
Temp Definition
°C
Dew Point Temp Definition
°C
Rel Hum Definition
%
Wind Dir Definition
10's deg

Wind Spd Definition
km/h
Visibility Definition
km
Stn Press Definition
kPa
Hmdx Definition


Wind Chill Definition


Weather Definition


TIME
00:00 Legend Double Dagger 23.8 19.8 78 25 12 24.1 99.62 31   LegendNANA
01:00 Legend Double Dagger 23.3 19.7 80 25 12 24.1 99.57 31   Mostly Cloudy
02:00 Legend Double Dagger 22.7 19.3 81 25 8 24.1 99.54 30   LegendNANA
03:00 Legend Double Dagger 21.8 19.0 84 24 11 24.1 99.54 29   LegendNANA
04:00 Legend Double Dagger 21.7 18.4 81 25 12 24.1 99.52 28   Clear
05:00 Legend Double Dagger 21.2 18.1 82 25 10 24.1 99.56 27   LegendNANA
06:00 Legend Double Dagger 22.2 18.1 77 21 9 24.1 99.57 28   LegendNANA
07:00 Legend Double Dagger 23.6 19.0 75 20 8 24.1 99.58 30   Mainly Clear
08:00 Legend Double Dagger 25.7 20.2 71 25 13 24.1 99.59 33   LegendNANA
09:00 Legend Double Dagger 28.1 20.3 62 24 16 24.1 99.57 36   LegendNANA
10:00 Legend Double Dagger 30.0 19.6 53 23 25 24.1 99.56 37   Mainly Clear
11:00 Legend Double Dagger 31.4 20.0 50 24 21 24.1 99.51 39   LegendNANA
12:00 Legend Double Dagger 32.5 19.7 46 25 32 24.1 99.45 40   LegendNANA
13:00 Legend Double Dagger 33.3 20.0 45 26 25 24.1 99.41 41   Mostly Cloudy
14:00 Legend Double Dagger 32.7 19.8 46 25 28 24.1 99.33 40   LegendNANA
15:00 Legend Double Dagger 33.5 19.5 43 25 27 24.1 99.29 41   LegendNANA
16:00 Legend Double Dagger 32.4 18.9 44 24 28 24.1 99.24 39   Mostly Cloudy
17:00 Legend Double Dagger 30.5 21.5 58 27 13 24.1 99.24 39   LegendNANA
18:00 Legend Double Dagger 29.7 21.0 59 25 23 24.1 99.24 38   LegendNANA
19:00 Legend Double Dagger 28.6 20.5 61 23 18 19.3 99.27 37   Mostly Cloudy
20:00 Legend Double Dagger 27.5 20.7 66 27 19 24.1 99.37 36   LegendNANA
21:00 Legend Double Dagger 26.6 19.6 65 27 14 24.1 99.41 34   LegendNANA
22:00 Legend Double Dagger 26.5 19.0 63 30 17 24.1 99.39 33   Mostly Cloudy
23:00 Legend Double Dagger 25.7 19.2 67 29 14 24.1 99.43 33   Rain Showers

Notes on Data Quality.

Legend

  • E = Estimated
  • M = Missing
  • NA = Not Available
  • ‡ = Partner data that is not subject to review by the National Climate Archives
Date modified: